Date,TemperatureHighF,TemperatureAvgF,TemperatureLowF,DewpointHighF,DewpointAvgF,DewpointLowF,HumidityHigh,HumidityAvg,HumidityLow,PressureMaxIn,PressureMinIn,WindSpeedMaxMPH,WindSpeedAvgMPH,GustSpeedMaxMPH,PrecipitationSumIn
2013-1-1,58.6,46.7,37.0,31.0,23.1,6.9,72,44,16,30.50,30.28,12,1,26,0.00
2013-1-2,62.7,52.7,45.4,23.9,14.8,6.4,38,23,16,30.30,30.15,27,3,33,0.00
2013-1-3,67.4,50.4,43.9,20.5,12.5,4.0,35,22,8,30.38,30.18,6,0,19,0.00
2013-1-4,65.2,46.1,40.2,19.4,13.5,7.3,36,27,12,30.51,30.31,6,0,9,0.00
2013-1-5,63.2,50.4,42.2,28.7,17.7,11.2,53,28,15,30.52,30.34,0,0,8,0.00
2013-1-6,50.1,44.9,40.1,40.4,37.2,26.2,90,75,49,30.41,30.23,7,0,11,0.06
2013-1-7,68.4,54.0,42.8,32.2,19.2,7.7,65,29,10,30.27,30.08,18,3,41,0.00
2013-1-8,71.5,58.5,49.4,35.7,23.8,15.1,48,27,17,30.29,30.07,3,0,14,0.00
2013-1-9,67.1,57.1,48.0,46.1,34.1,26.2,90,46,24,30.27,30.04,6,0,10,0.00
2013-1-10,52.5,45.7,37.8,43.7,28.9,15.8,92,57,23,30.29,30.00,10,1,19,0.04
2013-1-11,49.8,40.7,33.2,20.6,17.3,12.5,59,40,25,30.49,30.26,7,1,16,0.00
2013-1-12,52.8,41.3,33.3,20.4,14.9,10.2,53,36,18,30.47,30.27,6,1,21,0.00
2013-1-13,51.7,40.2,32.8,20.5,12.2,-0.3,49,33,17,30.47,30.31,21,3,21,0.00
2013-1-14,52.9,42.6,34.3,8.2,-4.2,-19.7,29,14,6,30.66,30.37,26,2,26,0.00
2013-1-15,58.3,50.4,33.4,18.0,8.4,3.5,36,19,14,30.75,30.57,10,0,10,0.00
2013-1-16,66.6,56.8,42.5,24.6,20.7,16.3,43,25,17,30.61,30.23,4,1,9,0.00
2013-1-17,75.3,60.9,49.9,19.9,13.2,3.9,28,16,7,30.29,30.13,15,1,18,0.00
2013-1-18,75.8,60.2,48.8,23.6,13.7,3.1,29,17,9,30.28,30.11,8,1,10,0.00
2013-1-19,74.9,61.6,51.7,18.1,8.8,1.1,19,13,8,30.28,30.11,6,0,11,0.00
2013-1-20,76.1,62.5,52.2,18.0,5.5,-13.4,19,11,4,30.26,30.08,10,1,18,0.00
2013-1-21,79.8,67.3,55.6,13.8,2.3,-4.1,13,8,5,30.14,29.98,14,2,25,0.00
2013-1-22,77.4,60.9,53.6,20.7,11.9,0.0,21,15,6,30.22,30.05,1,0,7,0.00
2013-1-23,74.2,59.9,53.3,42.3,21.1,12.3,65,23,17,30.18,30.04,5,0,13,0.01
2013-1-24,57.8,53.7,49.1,56.4,50.9,41.9,96,90,69,30.35,30.14,6,0,12,0.55
2013-1-25,59.9,56.4,54.5,56.0,53.4,51.3,93,90,83,30.28,30.04,2,0,8,0.15
2013-1-26,66.0,56.7,52.2,55.2,51.5,50.0,95,84,61,30.07,29.92,8,0,11,0.01
2013-1-27,52.2,46.9,36.5,50.5,44.3,29.1,96,91,68,30.24,30.00,15,1,15,0.36
2013-1-28,53.9,40.1,35.9,29.7,26.9,19.1,76,61,26,30.48,30.20,11,0,22,0.00
2013-1-29,57.2,45.9,37.3,36.1,33.4,25.4,78,63,35,30.50,30.34,6,0,9,0.00
2013-1-30,68.0,48.1,41.5,40.4,34.9,28.8,74,62,26,30.57,30.36,1,0,9,0.00
2013-1-31,77.7,59.7,48.0,38.0,34.2,27.5,64,41,19,30.37,30.16,9,0,9,0.00
2013-2-1,74.0,62.2,51.7,39.2,34.0,30.1,52,36,21,30.31,30.13,12,0,12,0.00
2013-2-2,73.3,62.3,55.7,45.9,37.0,30.2,68,41,21,30.30,30.17,1,0,6,0.01
2013-2-3,73.5,61.6,51.7,42.2,37.8,29.4,63,44,20,30.21,30.02,5,0,15,0.00
2013-2-4,73.2,58.9,49.8,45.0,38.1,30.7,75,48,28,30.17,30.04,2,0,10,0.00
2013-2-5,62.9,52.6,45.4,47.5,44.5,37.6,89,75,56,30.20,30.05,11,0,11,0.00
2013-2-6,63.5,51.3,43.9,45.1,42.8,38.8,88,74,47,30.30,30.08,9,0,9,0.00
2013-2-7,60.4,49.2,41.9,44.9,40.6,36.5,86,73,54,30.34,30.08,11,0,11,0.00
2013-2-8,47.6,41.2,33.5,39.6,34.9,30.1,91,79,52,30.17,30.04,15,0,15,0.23
2013-2-9,52.2,36.6,32.2,36.1,31.2,29.0,91,82,44,30.37,30.15,7,0,10,0.01
2013-2-10,52.3,42.8,35.3,36.6,33.9,30.4,84,71,55,30.34,30.25,4,0,8,0.00
2013-2-11,59.1,44.2,36.9,33.5,18.8,2.6,81,42,10,30.48,30.23,14,2,31,0.00
2013-2-12,63.9,49.2,38.2,27.9,20.7,15.6,51,35,17,30.61,30.42,9,0,9,0.00
2013-2-13,68.9,57.4,41.9,30.8,23.8,19.1,47,29,16,30.49,30.25,8,0,8,0.00
2013-2-14,74.6,59.2,46.1,32.9,25.4,16.5,45,29,15,30.32,30.15,21,0,21,0.00
2013-2-15,77.6,65.2,58.3,26.9,16.5,10.2,22,15,11,30.25,30.10,29,8,29,0.00
2013-2-16,78.6,63.6,53.3,24.1,13.1,4.4,24,15,7,30.25,29.99,4,0,14,0.00
2013-2-17,54.1,52.4,51.0,18.2,16.9,16.0,27,24,22,29.99,29.92,0,0,1,0.00
2013-5-12,101.3,82.8,66.1,55.8,42.2,31.6,66,28,9,29.94,29.72,3,1,13,0.00
2013-5-13,101.5,84.8,70.8,45.8,39.1,33.9,38,21,10,29.82,29.68,3,0,15,0.00
2013-5-14,84.3,72.6,59.8,50.9,43.1,29.5,65,36,22,29.93,29.66,3,1,14,0.00
2013-5-15,78.5,64.5,52.4,52.9,50.1,45.8,85,61,40,30.02,29.87,2,0,14,0.00
2013-5-16,75.2,62.3,54.9,54.7,51.4,48.3,87,69,45,29.98,29.86,2,0,12,0.00
2013-5-17,72.0,61.8,55.4,53.3,51.0,47.8,85,69,49,30.02,29.85,2,0,11,0.00
2013-5-18,77.8,63.6,53.7,53.5,50.4,47.6,86,65,41,30.07,29.94,6,0,11,0.00
2013-6-29,102.8,94.0,79.2,58.7,54.8,43.3,40,27,22,29.59,29.46,9,0,9,0.00
2013-6-30,103.1,84.9,73.5,61.9,52.7,40.5,58,35,15,29.56,29.43,10,0,16,0.00
2013-7-1,99.9,82.0,67.1,60.4,55.4,45.3,71,44,18,29.72,29.53,11,0,11,0.00
2013-7-2,93.4,79.4,69.4,61.3,55.7,45.2,69,46,22,29.81,29.65,12,0,12,0.00
2013-7-3,93.4,77.6,66.8,61.5,56.4,46.8,69,50,29,29.81,29.61,11,0,11,0.00
2013-7-4,93.4,77.7,64.8,58.3,53.9,39.7,73,47,21,29.67,29.55,11,0,11,0.00
2013-7-5,86.7,72.1,60.4,59.5,56.5,43.5,87,61,24,29.75,29.57,15,0,15,0.00
2013-7-6,91.6,72.8,59.9,60.8,58.3,55.4,90,64,31,29.73,29.58,9,0,10,0.00
2013-7-7,94.3,75.6,58.9,60.7,57.5,49.0,88,58,30,29.72,29.59,8,0,8,0.00
2013-7-8,103.8,82.0,64.2,58.4,49.2,34.4,71,36,13,29.78,29.65,9,0,12,0.00
2013-7-9,96.3,84.3,70.4,59.1,48.7,34.1,65,30,14,29.82,29.65,12,0,12,0.00
2013-7-10,82.4,74.1,66.4,60.1,56.1,48.2,75,54,37,29.89,29.72,12,0,12,0.00
2013-7-11,78.5,69.4,63.7,62.5,60.4,54.4,90,73,56,29.92,29.78,8,0,9,0.08
2013-7-12,90.3,74.1,62.6,62.8,59.1,54.7,90,63,36,29.86,29.70,10,0,11,0.00
2013-7-13,93.2,76.0,59.9,57.5,54.0,48.9,75,49,26,29.84,29.67,9,0,9,0.00
2013-7-14,94.7,77.8,63.7,57.4,53.1,49.4,63,45,27,29.81,29.64,10,0,10,0.00
2013-7-15,97.1,78.3,64.8,57.1,50.0,39.1,65,41,14,29.75,29.61,15,0,18,0.00
2013-7-16,91.4,74.9,60.2,46.1,37.7,27.7,57,28,12,29.87,29.66,13,0,13,0.00
2013-7-17,94.9,76.7,59.6,42.7,35.8,27.0,39,24,14,29.95,29.80,11,0,11,0.00
2013-7-18,95.1,76.7,61.3,55.5,44.0,22.0,58,32,20,29.88,29.69,11,0,11,0.00
2013-7-19,91.4,75.9,63.9,57.7,51.1,43.1,72,43,26,29.77,29.66,12,0,13,0.00
2013-7-20,88.6,70.6,59.9,61.9,58.0,54.0,88,67,38,29.81,29.65,12,0,13,0.00
2013-7-21,78.3,69.8,64.0,61.5,59.0,55.8,81,69,50,29.84,29.63,7,0,7,0.00
2013-7-22,89.9,74.9,63.4,63.6,59.7,57.0,91,62,36,29.88,29.79,16,0,16,0.01
2013-7-23,88.0,74.2,63.2,59.3,56.2,52.6,78,56,32,29.93,29.80,10,0,10,0.00
2013-7-24,89.7,74.8,62.6,58.3,55.4,50.6,75,53,33,29.89,29.75,10,0,10,0.00
2013-7-25,91.2,75.5,62.4,58.6,55.8,53.1,73,53,32,29.90,29.75,10,0,10,0.00
2013-7-26,85.7,73.2,61.8,63.6,59.8,54.7,92,65,43,30.03,29.79,10,0,11,0.06
2013-7-27,89.0,74.7,64.0,59.4,57.7,55.9,79,58,35,29.92,29.73,11,0,11,0.00
2013-7-28,84.9,68.9,58.1,59.0,56.2,53.4,89,66,39,29.86,29.71,13,1,13,0.00
2013-7-29,85.3,69.1,55.7,55.7,53.7,48.5,88,62,33,29.97,29.78,14,0,14,0.00
2013-7-30,85.5,69.1,56.6,56.0,53.0,50.1,83,59,34,30.08,29.94,12,0,12,0.00
2013-7-31,80.9,65.4,54.8,55.8,52.6,49.4,87,65,41,30.11,29.96,12,0,12,0.00
2013-8-1,82.6,65.4,52.5,55.5,53.0,48.8,92,68,37,30.08,29.86,9,0,13,0.00
2013-8-2,85.1,68.4,54.7,56.7,53.7,49.7,90,63,34,29.94,29.82,10,0,10,0.00
2013-8-3,87.8,68.8,56.2,57.1,54.6,47.7,92,65,28,29.99,29.83,11,0,11,0.00
2013-8-4,86.7,70.6,53.6,56.2,51.6,42.5,83,54,28,29.96,29.83,11,0,11,0.00
2013-8-5,90.7,72.6,58.1,50.9,40.9,23.0,62,34,13,29.93,29.83,10,0,12,0.00
2013-8-6,75.8,60.6,52.0,53.0,45.9,38.6,80,60,37,29.97,29.83,8,0,8,0.00
2013-8-7,83.0,69.1,55.7,54.8,48.9,37.9,65,50,32,30.02,29.91,2,0,11,0.00
2013-8-8,84.0,66.9,57.4,55.6,48.1,42.1,71,52,30,29.94,29.82,2,0,13,0.00
2013-8-9,82.0,65.9,53.2,55.1,48.8,40.1,77,57,29,29.93,29.79,11,0,11,0.00
2013-8-10,82.2,67.0,53.1,57.0,51.6,43.4,86,60,37,30.00,29.87,11,0,11,0.00
2013-8-11,87.6,70.4,56.7,54.6,50.3,45.1,77,51,28,29.97,29.81,10,0,10,0.00
2013-8-12,89.0,71.6,55.9,55.7,52.3,46.8,80,53,31,29.92,29.78,6,0,12,0.00
2013-8-13,94.3,73.5,56.3,56.7,54.2,51.5,86,56,27,29.88,29.74,9,0,9,0.00
2013-8-14,97.8,78.0,61.4,58.6,56.0,43.2,79,51,22,29.79,29.64,6,0,10,0.00
2013-8-15,94.5,78.7,63.5,56.7,52.0,42.4,78,43,24,29.83,29.65,11,0,12,0.00
2013-8-16,95.9,79.9,66.4,54.9,47.5,39.1,59,34,16,29.81,29.71,11,0,11,0.00
2013-8-17,97.3,81.1,67.3,54.6,45.0,32.2,49,30,12,29.82,29.61,11,0,11,0.00
2013-8-18,94.5,79.0,66.9,58.0,50.0,33.0,69,39,14,29.74,29.60,11,0,11,0.00
2013-8-19,92.1,76.0,65.3,60.3,55.6,47.5,71,50,31,29.83,29.65,11,0,11,0.00
2013-8-20,94.5,75.2,63.4,58.2,52.9,40.4,69,49,18,29.82,29.70,12,0,12,0.00
2013-10-4,70.6,70.6,70.6,11.4,11.4,11.4,10,10,10,29.98,29.98,16,14,29,0.00
2013-10-5,70.1,67.8,64.5,12.6,5.8,-4.5,11,9,6,30.07,30.02,4,0,4,0.00
2013-10-6,93.4,75.0,60.3,21.4,12.3,3.2,18,10,4,30.10,29.85,13,1,14,0.00
2013-10-7,84.9,70.7,59.0,37.8,22.9,12.8,37,18,8,29.95,29.77,12,0,12,0.00
2013-10-8,74.0,61.7,52.0,51.6,41.0,24.2,82,49,27,29.94,29.76,13,1,13,0.00
2013-10-9,56.2,52.0,47.0,50.4,46.6,42.1,89,82,73,29.89,29.68,15,1,15,0.24
2013-10-10,66.0,53.1,42.1,45.7,41.8,36.9,90,68,35,30.18,29.89,18,0,18,0.01
2013-10-11,75.3,59.6,48.0,46.2,41.8,34.2,80,55,24,30.16,29.97,10,0,10,0.00
2013-10-12,76.0,62.0,50.8,46.8,39.4,34.1,73,45,27,30.05,29.89,13,0,14,0.00
2013-10-13,70.8,54.9,51.4,50.8,47.2,43.3,85,76,39,30.11,29.89,4,0,11,0.00
2013-10-14,83.6,66.2,50.2,47.2,34.8,13.8,84,39,13,30.11,29.88,13,1,13,0.00
2013-10-15,84.7,70.6,58.9,28.6,22.3,14.2,25,16,11,29.95,29.76,20,1,20,0.00
2013-10-16,84.3,69.5,58.7,25.0,21.0,15.1,24,17,9,30.07,29.90,15,0,15,0.00
2013-10-17,83.4,67.4,54.8,31.0,24.4,18.8,36,21,10,30.10,29.87,11,0,11,0.00
2013-10-18,88.6,69.2,54.4,39.0,28.9,18.5,53,24,10,30.05,29.87,12,0,12,0.00
2013-10-19,87.2,71.8,59.0,35.5,25.4,18.8,27,19,9,30.04,29.85,12,0,12,0.00
2013-10-20,80.3,67.1,56.7,52.2,36.6,22.2,65,35,17,29.97,29.84,10,0,10,0.00
2013-10-21,82.6,66.4,53.6,48.8,39.4,26.7,62,39,20,30.00,29.84,10,0,10,0.00
2013-10-22,86.7,67.9,55.6,52.0,37.4,19.9,80,36,14,30.03,29.80,8,0,8,0.00
2013-10-23,73.7,58.6,50.2,52.2,48.5,37.3,91,71,45,30.05,29.79,9,0,9,0.00
2013-10-24,71.5,58.8,52.5,51.8,49.7,47.4,86,73,47,30.13,29.91,10,0,10,0.00
2013-10-25,81.4,62.0,49.8,53.5,48.2,36.5,92,64,35,30.23,30.00,8,0,8,0.00
2013-10-26,89.5,72.1,59.2,46.9,33.3,23.9,50,26,12,30.12,29.87,6,0,7,0.00
2013-10-27,77.7,65.1,55.0,54.7,38.7,19.7,87,44,19,29.92,29.73,12,0,12,0.00
2013-10-28,62.4,53.8,49.2,50.9,45.1,39.4,88,73,45,30.00,29.72,18,1,18,0.02
2013-10-29,59.5,51.4,43.3,46.8,42.2,38.2,88,72,48,30.13,29.98,10,0,10,0.01
2013-10-30,69.8,54.4,43.2,45.2,40.5,34.9,90,63,30,30.20,30.07,10,0,10,0.00
2013-10-31,80.3,61.7,49.4,37.2,31.4,21.7,57,35,14,30.21,30.00,9,0,9,0.00
2013-11-1,84.9,67.2,53.6,33.1,25.4,21.3,45,22,10,30.18,29.94,11,0,11,0.00
2013-11-2,81.6,65.5,54.1,46.8,28.4,22.4,75,27,12,29.98,29.81,13,0,13,0.00
2013-11-3,68.6,56.9,47.0,49.7,47.0,40.2,86,71,44,29.98,29.80,11,0,11,0.00
2013-11-4,64.8,55.6,48.5,51.6,47.5,39.3,92,76,50,30.02,29.76,9,0,9,0.04
2013-11-5,73.2,60.9,48.5,45.8,21.7,3.7,85,25,8,30.23,29.97,24,1,24,0.00
2013-11-6,79.2,63.9,50.4,21.0,14.8,9.9,30,16,8,30.33,30.10,8,0,8,0.00
2013-11-7,85.1,68.4,57.2,25.6,16.6,7.1,25,14,6,30.18,29.99,7,0,7,0.00
2013-11-8,77.8,61.1,54.1,47.0,26.1,14.3,52,28,10,30.08,29.92,1,0,11,0.00
2013-11-9,76.8,60.9,51.7,41.3,27.2,19.8,45,29,13,30.19,29.96,9,0,10,0.00
2013-11-10,82.2,61.6,54.1,43.7,22.6,10.9,46,24,7,30.23,30.01,8,0,9,0.00
2013-11-11,84.9,66.9,54.8,34.3,23.9,15.4,30,20,10,30.17,30.00,8,0,8,0.00
2013-11-12,80.9,69.2,60.9,36.8,29.0,24.4,31,23,13,30.22,30.01,1,0,1,0.00
2013-11-13,91.2,78.5,62.5,34.1,23.4,12.6,27,14,8,30.04,29.79,21,1,23,0.00
2013-11-14,89.5,75.8,61.5,34.6,22.2,14.7,36,15,8,29.82,29.61,21,1,21,0.00
2013-11-15,67.2,56.8,51.9,50.7,44.2,30.1,85,65,34,29.78,29.56,12,0,12,0.00
2013-11-16,57.6,53.9,48.8,49.5,45.9,42.5,87,75,58,30.05,29.71,11,0,11,0.00
2013-11-17,66.6,56.7,46.0,47.2,44.6,41.3,86,66,43,30.22,30.01,12,0,12,0.00
2013-11-18,65.5,55.1,47.4,48.8,45.5,41.1,81,71,50,30.26,30.12,1,0,9,0.00
2013-11-19,63.2,54.9,49.3,47.8,46.8,42.8,85,75,54,30.18,29.99,7,0,9,0.00
2013-11-20,60.9,54.8,51.3,50.5,48.1,45.4,92,79,59,30.05,29.91,12,0,13,0.07
2013-11-21,55.4,53.1,49.1,53.7,49.7,37.8,95,89,60,29.99,29.86,19,0,19,0.38
2013-11-22,53.9,50.9,49.9,38.3,32.1,29.6,61,48,41,30.08,29.89,36,13,39,0.00
2013-11-23,61.5,52.0,45.5,36.2,32.7,29.4,66,49,34,30.26,30.05,25,3,25,0.00
2013-11-24,65.0,53.0,44.6,38.7,35.8,33.0,69,53,32,30.41,30.17,19,1,19,0.00
2013-11-25,69.3,55.7,45.5,40.6,35.1,30.8,65,48,27,30.42,30.25,9,0,9,0.00
2013-11-26,71.3,57.8,50.8,35.6,30.5,25.0,48,37,20,30.35,30.18,8,0,8,0.00
2013-11-27,72.3,60.6,51.4,35.6,31.8,26.4,53,36,19,30.11,29.90,15,0,15,0.00
2013-11-28,66.9,55.7,48.8,41.3,34.2,28.6,61,45,25,30.20,29.93,14,0,14,0.00
2013-11-29,55.9,52.9,50.8,48.9,42.2,37.8,84,67,55,30.33,30.12,12,0,12,0.10
2013-11-30,73.7,60.4,51.1,45.2,33.4,22.8,70,39,25,30.34,30.14,11,1,12,0.00
2013-12-1,76.1,65.3,55.7,31.3,24.0,18.7,29,21,15,30.31,30.12,21,1,21,0.00
2013-12-2,73.6,60.4,53.0,34.9,25.1,17.6,40,27,13,30.21,29.92,1,0,8,0.00
2013-12-3,61.9,52.3,48.3,48.7,41.3,27.0,84,68,37,29.93,29.78,11,1,13,0.00
2013-12-4,58.0,47.1,36.6,41.3,27.4,6.4,80,49,15,30.19,29.79,11,0,11,0.00
2013-12-5,55.6,43.9,36.8,31.2,28.6,16.0,73,57,24,30.33,30.07,6,0,9,0.00
2013-12-6,55.6,44.7,36.6,36.6,32.8,26.8,80,64,36,30.41,30.28,10,0,10,0.00
2013-12-7,47.7,42.3,34.3,43.7,35.5,23.4,91,77,53,30.38,30.17,10,0,10,0.06
2013-12-8,52.2,41.2,34.3,34.2,28.5,13.9,81,62,38,30.49,30.33,9,0,9,0.00
2013-12-9,56.6,43.6,33.2,25.3,6.4,-22.3,63,27,4,30.66,30.41,29,2,29,0.00
2013-12-10,64.8,47.8,35.9,12.6,6.9,1.8,32,20,9,30.53,30.27,7,0,7,0.00
2013-12-11,70.4,55.7,41.9,16.5,9.4,1.7,28,16,9,30.42,30.23,6,0,10,0.00
2013-12-12,66.8,53.5,44.8,42.5,22.4,5.6,68,34,13,30.41,30.19,9,0,9,0.00
2013-12-13,64.7,51.2,40.5,35.8,30.8,15.4,68,47,22,30.44,30.25,7,0,8,0.00
2013-12-14,70.6,59.5,50.1,26.7,17.0,8.3,39,19,12,30.46,30.23,22,1,22,0.00
2013-12-15,78.1,62.1,50.1,26.0,16.4,8.2,26,18,8,30.41,30.13,7,0,7,0.00
2013-12-16,82.8,67.6,55.3,32.9,21.5,15.9,40,18,9,30.22,30.05,8,0,8,0.00
2013-12-17,83.6,69.0,60.7,35.6,24.3,18.7,27,19,9,30.16,29.94,8,0,8,0.00
2013-12-18,71.1,60.7,50.5,50.1,36.9,22.4,87,47,21,30.02,29.81,16,0,16,0.00
2013-12-19,50.7,45.9,41.3,45.6,41.9,32.0,92,86,53,29.95,29.77,25,1,25,0.48
2013-12-20,61.3,50.8,42.6,42.4,32.9,20.7,82,52,28,30.08,29.84,33,2,33,0.00
2013-12-21,58.4,47.6,40.5,42.2,39.2,34.4,87,74,52,30.27,30.01,9,0,9,0.00
2013-12-22,70.8,53.8,42.9,42.1,36.7,28.6,86,57,21,30.48,30.22,9,0,9,0.01
2013-12-23,71.6,58.7,49.4,34.9,31.6,27.8,53,37,22,30.49,30.25,8,0,8,0.00
2013-12-24,76.8,62.9,50.5,32.3,26.2,6.0,46,27,10,30.34,30.14,22,0,22,0.00
2013-12-25,77.6,68.6,59.0,14.3,3.4,-16.1,16,8,4,30.27,30.11,27,4,27,0.00
2013-12-26,76.8,64.8,55.3,16.9,6.0,-8.3,17,10,5,30.26,30.06,16,0,16,0.00
2013-12-27,80.7,64.3,53.3,21.1,7.1,-7.9,22,11,3,30.26,30.01,13,0,13,0.00
2013-12-28,72.5,61.7,53.1,27.8,15.2,3.0,34,17,10,30.12,29.93,7,0,10,0.00
2013-12-29,72.3,63.6,53.3,24.8,4.5,-13.1,18,10,4,30.23,29.96,16,2,23,0.00
2013-12-30,73.2,58.7,48.9,20.5,9.5,2.2,23,15,7,30.42,30.19,5,0,8,0.00
2013-12-31,71.8,58.2,50.1,29.3,15.5,7.8,37,20,11,30.33,30.17,5,0,8,0.00
2014-1-1,73.7,60.2,49.4,27.7,18.7,12.7,41,20,12,30.25,30.12,8,0,8,0.00
2014-1-2,79.9,64.2,54.4,29.7,20.7,16.1,28,20,10,30.19,29.99,9,0,9,0.00